Regional Weather Roundup
Issued by NWS Little Rock, AR

Home | Current Version | Previous Version | Graphics & Text | Print | Product List | Glossary On
Versions: 1 2 3 4 5 6 7 8 9 10 11 12 13 14 15 16 17 18 19 20 21 22 23 24 25 26 27 28 29 30 31 32 33 34 35 36 37 38 39 40 41 42 43 44 45 46 47 48 49 50
000
ASUS44 KLZK 300505
RWRLZK

WEATHER ROUNDUP FOR ARKANSAS
NATIONAL WEATHER SERVICE LITTLE ROCK AR
1200 AM CDT THU JUL 30 2015

NOTE: "FAIR" INDICATES FEW OR NO CLOUDS BELOW 12,000 FEET WITH NO
SIGNIFICANT WEATHER AND/OR OBSTRUCTIONS TO VISIBILITY.

ARZ001-003-010-029-300600-
NORTHWEST ARKANSAS

CITY           SKY/WX    TMP DP  RH WIND       PRES   REMARKS
FAYETTEVILLE   CLEAR     78  74  87 E7        30.13R
FORT SMITH     PTCLDY    84  75  74 E3        30.05R HX  92
HARRISON       CLEAR     74  72  93 CALM      30.16R
BENTONVILLE    CLEAR     79  70  73 E8        30.15S
ROGERS         CLEAR     79  71  76 E8        30.15R
SILOAM SPGS    CLEAR     79  68  69 E7        30.12R
HIGHFILL       CLEAR     79  72  79 NE7       30.13S
$$

ARZ004-005-016-300600-
NORTH CENTRAL ARKANSAS

CITY           SKY/WX    TMP DP  RH WIND       PRES   REMARKS
BATESVILLE     CLEAR     81  73  78 CALM      30.08R HX  85
FLIPPIN        CLEAR     81  72  74 N3        30.10R
MTN HOME       MOCLDY    78  72  81 CALM      30.12R
$$

ARZ040-041-300600-
WEST CENTRAL ARKANSAS

CITY           SKY/WX    TMP DP  RH WIND       PRES   REMARKS
MENA           CLEAR     81  72  74 CALM      30.10R
MOUNT IDA      CLEAR     79  74  84 CALM      30.05S
$$

ARZ009-017-025-026-028-300600-
NORTHEAST ARKANSAS

CITY           SKY/WX    TMP DP  RH WIND       PRES   REMARKS
JONESBORO      CLEAR     81  78  91 N5        30.06R HX  89
NEWPORT        CLEAR     79  76  90 N6        30.08R
WALNUT RIDGE   CLEAR     81  73  78 N8        30.07R HX  85
BLYTHEVILLE    PTCLDY    80  78  94 N3        30.06R HX  88
$$

ARZ022-023-033-042-044-300600-
CENTRAL ARKANSAS

CITY           SKY/WX    TMP DP  RH WIND       PRES   REMARKS
LITTLE ROCK    PTCLDY    88  72  58 CALM      30.04R HX  94
N LITTLE ROCK  PTCLDY    86  74  67 NE7       30.04R HX  94
JACKSONVILLE   CLEAR     80  77  89 CALM      30.04R HX  87
SEARCY         CLEAR     83  77  82 NE7       30.07R HX  92
HOT SPRINGS    CLEAR     85  72  65 CALM      30.06R HX  91
RUSSELLVILLE   CLEAR     84  74  71 N3        30.05R HX  91
CLINTON        LGT RAIN  79  77  94 CALM      30.10R
$$

ARZ036-300600-
EAST ARKANSAS

CITY           SKY/WX    TMP DP  RH WIND       PRES   REMARKS
WEST MEMPHIS     N/A     83  77  82 NE7       30.04R HX  92
$$

ARZ050-053-066-070-073-300600-
SOUTHWEST ARKANSAS

CITY           SKY/WX    TMP DP  RH WIND       PRES   REMARKS
ARKADELPHIA    FAIR      81  78  90 CALM      30.04R HX  89
CAMDEN         CLEAR     79  75  89 CALM      30.03R
TEXARKANA      CLEAR     81  70  69 CALM      30.04R
EL DORADO      CLEAR     79  74  84 CALM      30.04R
DE QUEEN       MOCLDY    78  76  93 CALM      30.02S
$$

ARZ056-057-069-300600-
SOUTHEAST ARKANSAS

CITY           SKY/WX    TMP DP  RH WIND       PRES   REMARKS
PINE BLUFF     PTCLDY    83  78  85 CALM      30.03R HX  93
STUTTGART      CLEAR     84  75  74 N3        30.04R HX  92
MONTICELLO     CLEAR     82  79  90 CALM      30.03R HX  92

$$




USA.gov is the U.S. government's official web portal to all federal, state and local government web resources and services.